Weather History for Big Piney, WY

Change the Weather History Date:

Tuesday, November 8, 2011

  Actual Average Record
Temperature  
Mean Temperature 22 °F 28 °F  
Max Temperature 37 °F 43 °F 61 °F (1999)
Min Temperature 7 °F 13 °F -4 °F (1990)
Degree Days  
Heating Degree Days 43 37  
Month to date heating degree days 282  
Since 1 July heating degree days 1862  
Cooling Degree Days 0 0  
Month to date cooling degree days 0  
Year to date cooling degree days 35  
Moisture  
Dew Point 9 °F    
Average Humidity 66    
Maximum Humidity 87    
Minimum Humidity 34    
Precipitation  
Precipitation 0.00 in 0.01 in 0.06 in (2002)
Month to date precipitation 0.06  
Year to date precipitation 6.03  
Sea Level Pressure  
Sea Level Pressure 30.32 in    
Wind  
Wind Speed 6 mph (North)    
Max Wind Speed 17 mph    
Max Gust Speed 23 mph    
Visibility 10 miles    
Events      
T = Trace of Precipitation, MM = Missing Value Source: NWS Daily Summary

Daily Weather History Graph

Daily Weather History Graph

Search for Another Location

Airport:

Trip Planner

Search our weather history database for the weather conditions in past years. The results will help you decide how hot, cold, wet, or windy it might be!

Date:

Astronomy

Nov. 08, 2011 Rise Set
Actual Time 7:02 AM MST 5:05 PM MST
Civil Twilight 6:32 AM MST 5:34 PM MST
Nautical Twilight 5:59 AM MST 6:08 PM MST
Astronomical Twilight 5:26 AM MST 6:41 PM MST
Moon 3:47 PM MST (11/8) 5:03 AM MST (11/8)
Length of Visible Light 11h 01m
Length of Day
10h 02m
Waxing Gibbous, 96% of the Moon is Illuminated
Nov 8
Waxing Gibbous
Nov 10
Full
Nov 18
Last Quarter
Nov 24
New
Dec 2
First Quarter

Hourly Weather History & Observations

Time (MST) Temp. Windchill Dew Point Humidity Pressure Visibility Wind Dir Wind Speed Gust Speed Precip Events Conditions
12:53 AM 10.0 °F 3.6 °F 5.0 °F 80% 30.18 in 10.0 mi NW 3.5 mph - N/A   Clear
1:53 AM 9.0 °F - 5.0 °F 84% 30.20 in 10.0 mi Calm Calm - N/A   Clear
2:53 AM 7.0 °F -4.5 °F 3.9 °F 87% 30.21 in 10.0 mi NW 6.9 mph - N/A   Clear
3:53 AM 8.1 °F 1.4 °F 3.9 °F 83% 30.21 in 10.0 mi NW 3.5 mph - N/A   Clear
4:53 AM 10.9 °F 1.4 °F 6.1 °F 81% 30.24 in 10.0 mi NNW 5.8 mph - N/A   Clear
5:53 AM 12.0 °F - 6.1 °F 77% 30.27 in 10.0 mi Calm Calm - N/A   Clear
6:53 AM 10.9 °F - 6.1 °F 81% 30.30 in 10.0 mi Calm Calm - N/A   Overcast
7:53 AM 17.1 °F 10.0 °F 10.9 °F 77% 30.30 in 10.0 mi NW 4.6 mph - N/A   Mostly Cloudy
8:53 AM 16.0 °F 7.4 °F 10.9 °F 81% 30.33 in 10.0 mi SSE 5.8 mph - N/A   Clear
9:53 AM 26.1 °F 21.9 °F 14.0 °F 60% 30.29 in 10.0 mi Variable 3.5 mph - N/A   Clear
10:53 AM 30.9 °F 21.2 °F 12.0 °F 46% 30.28 in 10.0 mi North 12.7 mph 16.1 mph N/A   Clear
11:53 AM 35.1 °F 25.9 °F 12.0 °F 39% 30.25 in 10.0 mi North 13.8 mph - N/A   Clear
12:53 PM 36.0 °F 27.5 °F 10.9 °F 36% 30.26 in 10.0 mi North 12.7 mph 20.7 mph N/A   Clear
1:53 PM 37.0 °F 27.4 °F 10.9 °F 34% 30.26 in 10.0 mi North 17.3 mph 23.0 mph N/A   Clear
2:53 PM 35.1 °F 25.5 °F 10.9 °F 37% 30.29 in 10.0 mi North 15.0 mph 21.9 mph N/A   Clear
3:53 PM 33.1 °F 23.0 °F 10.0 °F 38% 30.30 in 10.0 mi North 15.0 mph - N/A   Clear
4:53 PM 28.0 °F 16.5 °F 10.9 °F 49% 30.35 in 10.0 mi North 15.0 mph - N/A   Clear
5:53 PM 23.0 °F 11.1 °F 10.0 °F 58% 30.41 in 10.0 mi North 12.7 mph - N/A   Clear
6:53 PM 21.0 °F 9.3 °F 10.0 °F 63% 30.46 in 10.0 mi North 11.5 mph - N/A   Clear
7:53 PM 18.0 °F 4.8 °F 10.0 °F 71% 30.45 in 10.0 mi North 12.7 mph - N/A   Clear
8:53 PM 16.0 °F 5.3 °F 9.0 °F 74% 30.50 in 10.0 mi North 8.1 mph - N/A   Clear
9:53 PM 14.0 °F 5.1 °F 8.1 °F 77% 30.48 in 10.0 mi NNW 5.8 mph - N/A   Clear
10:53 PM 12.0 °F -1.3 °F 7.0 °F 80% 30.47 in 10.0 mi NNE 10.4 mph - N/A   Clear
11:53 PM 10.0 °F 1.8 °F 6.1 °F 84% 30.48 in 10.0 mi North 4.6 mph - N/A   Clear